Regional Weather Roundup
Issued by NWS

Home | Current Version | Previous Version | Graphics & Text | Print | Product List | Glossary On
Versions: 1 2 3 4 5 6 7 8 9 10 11 12 13 14 15 16 17 18 19 20 21 22 23 24 25 26 27 28 29 30 31 32 33 34 35 36 37 38 39 40 41 42 43 44 45 46 47 48 49 50
000
ASUS43 KLSX 302310
RWRMO

WEATHER SUMMARY FOR MISSOURI
NATIONAL WEATHER SERVICE SPRINGFIELD MO
600 PM CDT SUN APR 30 2017

NOTE: "FAIR" INDICATES FEW OR NO CLOUDS BELOW 12,000 FEET WITH NO
       SIGNIFICANT WEATHER AND/OR OBSTRUCTIONS TO VISIBILITY.
       CURRENT SKY AND/OR WEATHER CONDITIONS ARE NOT AVAILABLE FOR
       CHILLICOTHE AND FARMINGTON.

MOZ001>031-035>038-043-044-053-054-010000-
...NORTHERN AND WESTERN MISSOURI...

CITY           SKY/WX    TMP DP  RH WIND       PRES   REMARKS
KANSAS CTY INT CLOUDY    51  41  68 S17G23    29.48R
KANSAS C DTWN  CLOUDY   N/A N/A N/A S14       29.49R
LEE`S SUMMIT   PTSUNNY   54  41  61 S26G36    29.50R
ST JOSEPH      CLOUDY    55  49  80 S10       29.46S
CHILLICOTHE      N/A     57  54  89 VRB3      29.46F
KIRKSVILLE     CLOUDY    53  31  42 NW7       29.48S

$$
MOZ066>068-077>081-088>096-101>105-010000-
...SOUTHWEST MISSOURI...

CITY           SKY/WX    TMP DP  RH WIND       PRES   REMARKS
SPRINGFIELD    CLOUDY    57  39  51 SW24G33   29.56R
JOPLIN         CLOUDY    52  40  63 S17G26    29.55S
BRANSON        MOSUNNY   59  37  44 SW18G24   29.61R

$$
MOZ032>034-039>042-045>050-055>058-069>072-010000-
...CENTRAL MISSOURI...

CITY           SKY/WX    TMP DP  RH WIND       PRES   REMARKS
COLUMBIA       CLOUDY    63  60  90 W9        29.48R
JEFFERSON CITY CLOUDY    74  46  36 S15G25    29.45S
ROLLA          MOSUNNY   69  49  48 S20G33    29.48R
SEDALIA        MOSUNNY   63  49  60 SW28G36   29.49R
WHITEMAN AFB   MOSUNNY   57  46  66 SW23G39   29.49R
OSAGE BEACH    MOSUNNY   68  49  50 SW23      29.49R

$$
MOZ051-052-059>065-010000-
...EAST CENTRAL MISSOURI...

CITY           SKY/WX    TMP DP  RH WIND       PRES   REMARKS
ST LOUIS INTL  CLOUDY    72  65  78 SE20G33   29.49F
SPIRIT OF STL  PTSUNNY   73  66  78 S9G16       N/A
ST CHARLES     CLOUDY    71  67  87 SE22G28   29.47F

$$
MOZ072>076-082>087-097>100-106>115-010000-
...SOUTH CENTRAL AND SOUTHEAST MISSOURI...

CITY           SKY/WX    TMP DP  RH WIND       PRES   REMARKS
CAPE GIRARDEAU CLOUDY    70  64  81 S28G35    29.59F
FARMINGTON     PTSUNNY   70  61  73 S23G35    29.55R
POPLAR BLUFF   LGT RAIN  70  66  87 SW26G33   29.59S
WEST PLAINS    MOSUNNY   66  49  54 S12G21    29.57S

$$




USA.gov is the U.S. government's official web portal to all federal, state and local government web resources and services.